sat.trackr.live / text

‹ back to catalog

KUIPER-00048

NORAD 64508 · 2025-134J

PAYLOAD ACTIVE UNKNOWN

§ Identity

Operator
Country
US
Launch date
2025-06-23
Launch site
AFETR
Launch vehicle
Mass (kg)
RCS (m²)

External: N2YO · Heavens-Above · Gunter

§ Orbital elements

Epoch: 2026-05-25T05:28:19.226784Z

Period
97.30 min
Inclination
51.8978°
Eccentricity
0.0000289
Mean motion
14.79935115 rev/d
Perigee alt
629.3 km
Apogee alt
629.7 km
Semi-major
7,007.7 km
B*
8.8031e-5
RAAN
237.1212°
Arg perigee
110.4808°
Mean anomaly
249.6186°
Rev number
5,165

§ Raw data

KUIPER-000481 64508U 25134J   26145.22800031  .00000450  00000+0  88031-4 0  99942 64508  51.8978 237.1212 0000289 110.4808 249.6186 14.79935115 51650

JSON: /api/v1/satellites/64508 · /tle

For live sub-satellite position, see the globe view (requires WebGL).

§ Visibility from observer

Set your observer location to see the next 7 days of passes ≥ 10°. The values pass through the URL so the page stays shareable.

No JS? Fill the form by hand. The geolocation button needs JavaScript.